FW2728 Weather Reports


Display with metric or nautical units.
time (UTC)temp
F
wind
direction
speed
MPH
gust
MPH
rain 1hr
in
rain 24hr
in
rain mn
in
humidity
%
barometer
mb
20260903152036 82 125 2.0 5.0 0.00 0.00 0.00 77 1013.8
20260903151015 81 197 1.0 6.0 0.00 0.00 0.00 78 1013.7
20260903150015 81 127 2.0 6.0 0.00 0.00 0.00 79 1013.9
20260903145015 81 113 2.0 5.0 0.00 0.00 0.00 79 1014.1
20260903144016 81 112 2.0 6.0 0.00 0.00 0.00 78 1014.0
20260903143036 81 116 2.0 6.0 0.00 0.00 0.00 78 1013.9
20260903142016 81 136 2.0 6.0 0.00 0.00 0.00 78 1013.8
20260903141016 80 155 2.0 7.0 0.00 0.00 0.00 78 1013.8
20260903140017 80 155 2.0 5.0 0.00 0.00 0.00 79 1013.8
20260903135016 79 128 1.0 5.0 0.00 0.00 0.00 80 1013.8
20260903134016 79 111 2.0 5.0 0.00 0.00 0.00 80 1013.8
20260903133017 79 98 1.0 4.0 0.00 0.00 0.00 81 1013.7
20260903132017 78 124 2.0 5.0 0.00 0.00 0.00 81 1013.6
20260903131017 78 145 1.0 4.0 0.00 0.00 0.00 82 1013.6
20260903130017 78 110 2.0 5.0 0.00 0.00 0.00 82 1013.7
20260903125018 78 95 1.0 5.0 0.00 0.00 0.00 83 1013.7
20260903124038 77 125 1.0 4.0 0.00 0.00 0.00 83 1013.5
20260903123018 77 102 2.0 5.0 0.00 0.00 0.00 83 1013.5
20260903122019 77 104 1.0 3.0 0.00 0.00 0.00 83 1013.5
20260903121058 77 135 1.0 3.0 0.00 0.00 0.00 82 1013.3
20260903120016 77 131 1.0 4.0 0.00 0.00 0.00 82 1013.3
20260903115016 78 100 1.0 3.0 0.00 0.00 0.00 81 1013.3
20260903114016 78 100 1.0 4.0 0.00 0.00 0.00 81 1013.3
20260903113016 78 104 2.0 4.0 0.00 0.00 0.00 81 1013.2
20260903112017 78 98 1.0 3.0 0.00 0.00 0.00 81 1013.3
20260903111016 78 100 1.0 3.0 0.00 0.00 0.00 81 1013.2
20260903110016 78 104 1.0 4.0 0.00 0.00 0.00 80 1013.1
20260903105017 78 100 1.0 3.0 0.00 0.00 0.00 80 1013.0
20260903104017 78 107 1.0 3.0 0.00 0.00 0.00 80 1013.0
20260903103017 78 86 1.0 3.0 0.00 0.00 0.00 80 1013.0
20260903102017 78 108 1.0 3.0 0.00 0.00 0.00 80 1013.0
20260903101017 78 101 1.0 4.0 0.00 0.00 0.00 80 1013.0
20260903100018 77 101 1.0 3.0 0.00 0.00 0.00 79 1013.0
20260903095018 77 63 1.0 3.0 0.00 0.00 0.00 80 1013.0
20260903094018 77 93 1.0 2.0 0.00 0.00 0.00 80 1013.0
20260903093038 77 73 0.0 2.0 0.00 0.00 0.00 80 1013.0
20260903092038 77 174 0.0 1.0 0.00 0.00 0.00 79 1012.9
20260903091058 78 77 1.0 2.0 0.00 0.00 0.00 78 1012.9
20260903090015 78 49 1.0 4.0 0.00 0.00 0.00 78 1012.9
20260903085035 78 52 0.0 2.0 0.00 0.00 0.00 77 1012.9
20260903084016 78 30 0.0 1.0 0.00 0.00 0.00 76 1012.9
20260903083016 79 225 0.0 1.0 0.00 0.00 0.00 76 1013.1
20260903082016 79 218 1.0 3.0 0.00 0.00 0.00 76 1013.1
20260903081017 79 221 0.0 2.0 0.00 0.00 0.00 76 1012.9
20260903080016 79 227 0.0 3.0 0.00 0.00 0.00 75 1012.9
20260903075057 79 143 1.0 2.0 0.00 0.00 0.00 75 1013.0
20260903074016 79 205 0.0 2.0 0.00 0.00 0.00 74 1013.1
20260903073017 80 171 1.0 3.0 0.00 0.00 0.00 73 1013.2
20260903072017 80 183 0.0 2.0 0.00 0.00 0.00 73 1013.2
20260903071037 80 197 1.0 3.0 0.00 0.00 0.00 72 1013.2
20260903070037 80 215 1.0 3.0 0.00 0.00 0.00 72 1013.1
20260903065018 80 205 1.0 2.0 0.00 0.00 0.00 71 1013.1
20260903064018 81 211 0.0 2.0 0.00 0.00 0.00 71 1013.3
20260903063018 81 189 1.0 4.0 0.00 0.00 0.00 70 1013.4
20260903062036 81 127 2.0 5.0 0.00 0.00 0.00 69 1013.4
20260903061015 81 191 1.0 5.0 0.00 0.00 0.00 69 1013.5
20260903060015 82 110 1.0 4.0 0.00 0.00 0.00 68 1013.5
20260903055016 82 176 1.0 4.0 0.00 0.00 0.00 67 1013.7
20260903054016 82 114 2.0 6.0 0.00 0.00 0.00 67 1013.8
20260903053016 83 93 3.0 8.0 0.00 0.00 0.00 66 1013.7
20260903052016 83 101 3.0 7.0 0.00 0.00 0.00 65 1013.6
20260903051017 83 108 2.0 5.0 0.00 0.00 0.00 65 1013.6
20260903050017 84 110 2.0 5.0 0.00 0.00 0.00 64 1013.6
20260903045018 84 94 3.0 6.0 0.00 0.00 0.00 63 1013.5
20260903044018 84 117 3.0 7.0 0.00 0.00 0.00 62 1013.5
20260903043018 84 103 2.0 6.0 0.00 0.00 0.00 62 1013.4
20260903042018 85 88 2.0 6.0 0.00 0.00 0.00 62 1013.4
20260903041015 85 93 2.0 5.0 0.00 0.00 0.00 62 1013.5
20260903040016 86 103 3.0 8.0 0.00 0.00 0.00 61 1013.5
20260903035035 86 103 3.0 6.0 0.00 0.00 0.00 61 1013.5
20260903034016 86 95 3.0 8.0 0.00 0.00 0.00 59 1013.4
20260903033016 87 97 2.0 6.0 0.00 0.00 0.00 58 1013.3
20260903032056 87 114 2.0 7.0 0.00 0.00 0.00 57 1013.3
20260903031016 87 105 4.0 9.0 0.00 0.00 0.00 57 1013.2
20260903030017 88 94 3.0 9.0 0.00 0.00 0.00 56 1013.1
20260903025017 88 116 2.0 6.0 0.00 0.00 0.00 56 1013.0
20260903024017 89 90 3.0 9.0 0.00 0.00 0.00 55 1012.8
20260903023017 89 104 3.0 9.0 0.00 0.00 0.00 54 1012.7
20260903022017 90 106 2.0 8.0 0.00 0.00 0.00 53 1012.6
20260903021017 90 120 2.0 7.0 0.00 0.00 0.00 53 1012.4
20260903020018 90 120 3.0 7.0 0.00 0.00 0.00 52 1012.2
20260903015018 91 114 3.0 8.0 0.00 0.00 0.00 51 1012.1
20260903014018 91 117 3.0 9.0 0.00 0.00 0.00 51 1012.1
20260903013018 92 102 4.0 9.0 0.00 0.00 0.00 50 1011.9
20260903012038 92 105 3.0 7.0 0.00 0.00 0.00 50 1011.9
20260903011015 93 128 3.0 8.0 0.00 0.00 0.00 47 1011.7
20260903010015 93 93 3.0 6.0 0.00 0.00 0.00 44 1011.6
20260903005016 94 100 2.0 7.0 0.00 0.00 0.00 44 1011.6
20260903004016 94 90 4.0 9.0 0.00 0.00 0.00 44 1011.6
20260903003016 95 101 3.0 8.0 0.00 0.00 0.00 44 1011.6
20260903002036 95 77 4.0 11.0 0.00 0.00 0.00 44 1011.5
20260903001016 97 60 4.0 7.0 0.00 0.00 0.00 42 1011.4
20260903000016 99 76 2.0 6.0 0.00 0.00 0.00 37 1011.2
20260902235017 99 84 3.0 9.0 0.00 0.00 0.00 37 1011.2
20260902234017 100 69 2.0 6.0 0.00 0.00 0.00 37 1011.1
20260902233017 100 52 2.0 6.0 0.00 0.00 0.00 36 1011.1
20260902232017 100 53 3.0 5.0 0.00 0.00 0.00 36 1011.1
20260902231017 100 54 3.0 6.0 0.00 0.00 0.00 36 1011.1
20260902230018 100 59 3.0 5.0 0.00 0.01 0.00 36 1011.2
20260902225016 100 52 3.0 7.0 0.00 0.01 0.00 36 1011.1
20260902224018 101 59 2.0 6.0 0.00 0.01 0.00 35 1011.2
20260902223018 100 50 2.0 5.0 0.00 0.01 0.00 36 1011.2
20260902222018 101 46 3.0 7.0 0.00 0.01 0.00 35 1011.3
20260902221015 102 40 1.0 4.0 0.00 0.01 0.00 35 1011.2
20260902220015 101 67 3.0 6.0 0.00 0.01 0.00 35 1011.5
20260902215016 101 75 3.0 6.0 0.00 0.01 0.00 35 1011.6
20260902214015 101 60 3.0 7.0 0.00 0.01 0.00 35 1011.6
20260902213016 101 56 3.0 7.0 0.00 0.01 0.00 35 1011.7
20260902212016 101 38 2.0 5.0 0.00 0.01 0.00 36 1011.9
20260902211016 101 47 3.0 9.0 0.00 0.01 0.00 36 1011.9
20260902210016 101 50 3.0 9.0 0.00 0.01 0.00 36 1012.0
20260902205017 101 59 2.0 6.0 0.00 0.01 0.00 35 1012.1
20260902204017 101 56 3.0 7.0 0.00 0.01 0.00 35 1012.2
20260902203037 101 37 2.0 7.0 0.00 0.01 0.00 35 1012.3
20260902202017 101 49 3.0 8.0 0.00 0.01 0.00 37 1012.5
20260902201017 101 55 2.0 7.0 0.00 0.01 0.00 37 1012.6
20260902200018 100 48 2.0 6.0 0.00 0.01 0.00 38 1012.8
20260902195018 100 48 2.0 7.0 0.00 0.01 0.00 38 1013.0
20260902194018 100 64 2.0 5.0 0.00 0.01 0.00 38 1013.2
20260902193018 101 62 2.0 5.0 0.00 0.01 0.00 37 1013.3
20260902192018 100 17 2.0 5.0 0.00 0.01 0.00 38 1013.6
20260902191018 99 54 2.0 5.0 0.00 0.01 0.00 38 1013.7
20260902190018 99 68 3.0 6.0 0.00 0.01 0.00 39 1013.9
20260902185015 99 76 2.0 8.0 0.00 0.01 0.00 38 1013.9
20260902184016 99 51 2.0 6.0 0.00 0.01 0.00 39 1014.1
20260902183036 98 43 3.0 6.0 0.00 0.01 0.00 40 1014.2
20260902182016 97 18 1.0 4.0 0.00 0.01 0.00 41 1014.4
20260902181016 96 88 1.0 5.0 0.00 0.01 0.00 43 1014.7
20260902180036 98 62 3.0 7.0 0.00 0.01 0.00 41 1014.9
20260902175037 97 91 2.0 4.0 0.00 0.01 0.00 42 1015.1
20260902174017 96 114 1.0 3.0 0.00 0.01 0.00 43 1015.2
20260902173017 96 68 2.0 5.0 0.00 0.01 0.00 44 1015.4
20260902172017 96 101 2.0 8.0 0.00 0.01 0.00 45 1015.6
20260902171017 96 95 2.0 7.0 0.00 0.01 0.00 44 1015.7
20260902170017 95 72 2.0 7.0 0.00 0.01 0.00 44 1015.8
20260902165017 95 147 2.0 5.0 0.00 0.01 0.00 44 1015.8
20260902164017 94 193 1.0 4.0 0.00 0.01 0.00 45 1015.9
20260902163018 94 117 2.0 8.0 0.00 0.01 0.00 45 1016.0
20260902162017 93 100 1.0 4.0 0.00 0.01 0.00 47 1016.1
20260902161018 93 93 2.0 6.0 0.00 0.01 0.00 46 1016.2
20260902160018 92 117 1.0 5.0 0.00 0.01 0.00 48 1016.1
20260902155015 92 62 2.0 4.0 0.00 0.01 0.00 50 1016.2
20260902154016 92 118 0.0 3.0 0.00 0.01 0.00 50 1016.1
20260902153056 91 131 1.0 3.0 0.00 0.01 0.00 52 1016.1